Torna al catalogo

STARS-X

AttivoScienzaSSO
NORAD 69502·PAYLOAD·🇯🇵 Japan

Lanciato Jun 12, 2026 da Tanegashima Space Center

Loading…

Prossimi Passaggi (prossime 24 ore)

TLE

AggiornatoSource: Space-Track

Epoca: Sep 14, 2026, 14:16 UTC

1 69502U 26132A   26257.59477877  .00001752  00000-0  14837-3 0  9993
2 69502  97.6827 320.0645 0011557 338.6074  21.4665 14.99254194 14178

Traccia STARS-X in tempo reale con AllMySat

Download on the App Store